Weather History for Beaufort, SC

Change the Weather History Date:

Friday, March 2, 2012

  Actual Average (KNBC) Record (KNBC)
Temperature  
Mean Temperature 70 °F -  
Max Temperature 77 °F 66 °F 84 °F (1951)
Min Temperature 64 °F 43 °F 22 °F (1980)
Cooling Degree Days 6    
Growing Degree Days 20 (Base 50)    
Moisture  
Dew Point 62 °F    
Average Humidity 81    
Maximum Humidity 94    
Minimum Humidity 61    
Precipitation  
Precipitation 0.15 in - - ()
Sea Level Pressure  
Sea Level Pressure 29.92 in    
Wind  
Wind Speed 6 mph (SSW)    
Max Wind Speed 13 mph    
Max Gust Speed 21 mph    
Visibility 10 miles    
Events      
Averages and records for this station are not official NWS values.
T = Trace of Precipitation, MM = Missing Value Source: NWS Daily Summary

Daily Weather History Graph

Daily Weather History Graph

Search for Another Location

Airport:

Trip Planner

Search our weather history database for the weather conditions in past years. The results will help you decide how hot, cold, wet, or windy it might be!

Date:

Astronomy

Mar. 02, 2012 Rise Set
Actual Time 6:48 AM EST 6:21 PM EST
Civil Twilight 6:23 AM EST 6:45 PM EST
Nautical Twilight 5:55 AM EST 7:14 PM EST
Astronomical Twilight 5:26 AM EST 7:42 PM EST
Moon 12:47 PM EST (3/2) 2:21 AM EST (3/2)
Length of Visible Light 12h 22m
Length of Day
11h 32m
Waxing Gibbous, 66% of the Moon is Illuminated
Mar 2
Waxing Gibbous
Mar 8
Full
Mar 14
Last Quarter
Mar 22
New
Mar 30
First Quarter

Hourly Weather History & Observations

Time (EST) Temp. Dew Point Humidity Pressure Visibility Wind Dir Wind Speed Gust Speed Precip Events Conditions
12:35 AM 68.0 °F 62.6 °F 83% 29.94 in 10.0 mi SSW 3.5 mph - N/A   Scattered Clouds
12:55 AM 66.2 °F 62.6 °F 88% 29.95 in 10.0 mi South 3.5 mph - N/A   Scattered Clouds
1:15 AM 66.2 °F 62.6 °F 88% 29.95 in 10.0 mi SSW 4.6 mph - 0.01 in   Scattered Clouds
1:35 AM 64.4 °F 62.6 °F 94% 29.95 in 10.0 mi SSW 3.5 mph - 0.01 in   Scattered Clouds
1:55 AM 64.4 °F 62.6 °F 94% 29.95 in 10.0 mi SSW 5.8 mph - 0.02 in   Scattered Clouds
2:15 AM 64.4 °F 62.6 °F 94% 29.94 in 10.0 mi SSW 3.5 mph - N/A   Clear
2:35 AM 64.4 °F 62.6 °F 94% 29.94 in 10.0 mi SSW 3.5 mph - N/A   Clear
2:55 AM 64.4 °F 62.6 °F 94% 29.93 in 10.0 mi South 4.6 mph - 0.01 in   Clear
3:15 AM 64.4 °F 62.6 °F 94% 29.93 in 10.0 mi SSW 4.6 mph - N/A   Clear
3:55 AM 64.4 °F 62.6 °F 94% 29.93 in 10.0 mi SSW 4.6 mph - 0.01 in   Clear
4:15 AM 64.4 °F 62.6 °F 94% 29.93 in 10.0 mi South 4.6 mph - N/A   Clear
4:35 AM 64.4 °F 62.6 °F 94% 29.93 in 10.0 mi SSW 4.6 mph - 0.01 in   Clear
4:55 AM 64.4 °F 62.6 °F 94% 29.94 in 10.0 mi SSW 4.6 mph - 0.02 in   Clear
5:15 AM 64.4 °F 62.6 °F 94% 29.95 in 7.0 mi South 4.6 mph - 0.01 in   Clear
5:55 AM 64.4 °F 62.6 °F 94% 29.97 in 7.0 mi SSW 4.6 mph - 0.02 in   Clear
6:15 AM 64.4 °F 62.6 °F 94% 29.97 in 10.0 mi SW 3.5 mph - N/A   Clear
6:35 AM 64.4 °F 62.6 °F 94% 29.98 in 7.0 mi SW 5.8 mph - 0.01 in   Clear
6:55 AM 64.4 °F 62.6 °F 94% 29.97 in 7.0 mi SSW 4.6 mph - 0.01 in   Scattered Clouds
7:15 AM 64.4 °F 62.6 °F 94% 29.97 in 7.0 mi SSW 4.6 mph - N/A   Clear
8:15 AM 68.0 °F 64.4 °F 88% 29.98 in 10.0 mi SW 6.9 mph - 0.01 in   Clear
8:35 AM 68.0 °F 64.4 °F 88% 29.98 in 10.0 mi SW 6.9 mph - 0.01 in   Clear
8:55 AM 68.0 °F 64.4 °F 88% 29.99 in 10.0 mi WSW 6.9 mph - 0.02 in   Clear
9:35 AM 69.8 °F 64.4 °F 83% 30.00 in 10.0 mi WSW 8.1 mph - N/A   Clear
9:55 AM 73.4 °F 64.4 °F 73% 29.99 in 10.0 mi WSW 10.4 mph - 0.01 in   Clear
10:15 AM 73.4 °F 64.4 °F 73% 29.99 in 10.0 mi WSW 10.4 mph - N/A   Clear
10:35 AM 75.2 °F 64.4 °F 69% 29.99 in 10.0 mi West 11.5 mph - N/A   Clear
10:55 AM 77.0 °F 64.4 °F 65% 29.98 in 10.0 mi SW 6.9 mph - N/A   Clear
11:15 AM 77.0 °F 62.6 °F 61% 29.99 in 10.0 mi SSW 8.1 mph - N/A   Clear
11:35 AM 77.0 °F 62.6 °F 61% 29.98 in 10.0 mi SSW 4.6 mph - N/A   Clear
11:55 AM 77.0 °F 64.4 °F 65% 29.97 in 10.0 mi SSW 6.9 mph - 0.01 in   Clear
12:15 PM 75.2 °F 64.4 °F 69% 29.96 in 10.0 mi SSW 5.8 mph - N/A   Clear
12:35 PM 75.2 °F 64.4 °F 69% 29.95 in 10.0 mi South 6.9 mph - N/A   Clear
12:55 PM 77.0 °F 64.4 °F 65% 29.94 in 10.0 mi SSW 8.1 mph - 0.01 in   Clear
1:35 PM 75.2 °F 64.4 °F 69% 29.92 in 10.0 mi SSE 6.9 mph - N/A   Clear
1:55 PM 73.4 °F 62.6 °F 69% 29.90 in 10.0 mi South 10.4 mph - N/A   Clear
2:15 PM 71.6 °F 62.6 °F 73% 29.89 in 10.0 mi South 10.4 mph 17.3 mph N/A   Clear
2:35 PM 69.8 °F 60.8 °F 73% 29.89 in 10.0 mi SSW 12.7 mph 19.6 mph 0.01 in   Clear
2:55 PM 71.6 °F 62.6 °F 73% 29.89 in 10.0 mi South 9.2 mph 18.4 mph 0.01 in   Scattered Clouds
3:15 PM 71.6 °F 60.8 °F 69% 29.89 in 10.0 mi South 9.2 mph 20.7 mph N/A   Clear
3:35 PM 71.6 °F 60.8 °F 69% 29.89 in 10.0 mi South 11.5 mph 19.6 mph N/A   Clear
3:55 PM 69.8 °F 60.8 °F 73% 29.88 in 10.0 mi South 9.2 mph 19.6 mph N/A   Clear
4:15 PM 68.0 °F 60.8 °F 78% 29.87 in 10.0 mi South 9.2 mph 17.3 mph N/A   Clear
4:35 PM 68.0 °F 60.8 °F 78% 29.88 in 10.0 mi South 9.2 mph 20.7 mph N/A   Clear
4:55 PM 68.0 °F 60.8 °F 78% 29.88 in 10.0 mi South 8.1 mph 18.4 mph N/A   Scattered Clouds
5:15 PM 68.0 °F 60.8 °F 78% 29.88 in 10.0 mi SSW 10.4 mph - N/A   Scattered Clouds
5:35 PM 68.0 °F 59.0 °F 73% 29.87 in 10.0 mi South 8.1 mph - N/A   Clear
5:55 PM 68.0 °F 59.0 °F 73% 29.87 in 10.0 mi South 10.4 mph 17.3 mph N/A   Clear
6:15 PM 66.2 °F 59.0 °F 78% 29.86 in 10.0 mi South 10.4 mph 17.3 mph N/A   Clear
6:35 PM 64.4 °F 59.0 °F 83% 29.87 in 10.0 mi South 6.9 mph 19.6 mph N/A   Clear
6:55 PM 64.4 °F 59.0 °F 83% 29.87 in 10.0 mi SSW 5.8 mph - N/A   Clear
7:15 PM 64.4 °F 59.0 °F 83% 29.87 in 10.0 mi South 10.4 mph - N/A   Clear
7:35 PM 64.4 °F 59.0 °F 83% 29.87 in 10.0 mi South 8.1 mph - N/A   Clear
7:55 PM 64.4 °F 59.0 °F 83% 29.87 in 10.0 mi SSW 8.1 mph - N/A   Clear
8:15 PM 64.4 °F 59.0 °F 83% 29.88 in 10.0 mi SSW 5.8 mph - N/A   Clear
8:35 PM 64.4 °F 59.0 °F 83% 29.88 in 10.0 mi South 3.5 mph - N/A   Clear
8:55 PM 64.4 °F 59.0 °F 83% 29.87 in 10.0 mi South 4.6 mph - N/A   Clear
9:15 PM 64.4 °F 59.0 °F 83% 29.87 in 10.0 mi South 4.6 mph - N/A   Clear
9:35 PM 66.2 °F 59.0 °F 78% 29.87 in 10.0 mi South 9.2 mph - N/A   Clear
9:55 PM 64.4 °F 59.0 °F 83% 29.87 in 10.0 mi South 8.1 mph - N/A   Clear
10:15 PM 64.4 °F 59.0 °F 83% 29.87 in 10.0 mi South 8.1 mph - N/A   Clear
10:35 PM 66.2 °F 59.0 °F 78% 29.87 in 10.0 mi South 6.9 mph - N/A   Clear
10:55 PM 66.2 °F 59.0 °F 78% 29.86 in 10.0 mi South 5.8 mph - N/A   Clear
11:15 PM 68.0 °F 59.0 °F 73% 29.86 in 10.0 mi SSW 6.9 mph - N/A   Clear
11:35 PM 68.0 °F 59.0 °F 73% 29.85 in 10.0 mi SSW 8.1 mph - N/A   Clear
11:55 PM 68.0 °F 59.0 °F 73% 29.85 in 10.0 mi SSW 6.9 mph - N/A   Clear